CDT,Max TemperatureF,Mean TemperatureF,Min TemperatureF,Max Dew PointF,MeanDew PointF,Min DewpointF,Max Humidity, Mean Humidity, Min Humidity, Max Sea Level PressureIn, Mean Sea Level PressureIn, Min Sea Level PressureIn, Max VisibilityMiles, Mean VisibilityMiles, Min VisibilityMiles, Max Wind SpeedMPH, Mean Wind SpeedMPH, Max Gust SpeedMPH,PrecipitationIn, CloudCover, Events, WindDirDegrees
2013-4-1,33,24,15,14,11,9,79,56,38,30.24,30.19,30.09,10,10,10,16,11,26,0.00,0,,315
2013-4-2,35,24,14,18,12,9,86,58,35,30.35,30.29,30.22,10,10,10,13,7,18,0.00,1,,315
2013-4-3,42,27,12,30,18,9,93,67,44,30.37,30.25,30.00,10,10,10,15,4,22,0.00,1,,177
2013-4-4,42,37,30,32,25,18,87,63,42,30.19,30.07,29.96,10,10,10,20,10,26,0.00,1,,305
2013-4-5,37,28,19,28,18,14,87,61,44,30.26,30.16,29.95,10,10,5,13,4,22,0.00,4,Snow,124
2013-4-6,39,36,32,32,29,27,93,82,65,29.94,29.70,29.58,10,10,7,12,8,17,0.02,8,Rain,80
2013-4-7,41,36,32,32,30,27,93,81,65,29.94,29.85,29.75,10,9,2,12,6,16,0.13,7,Rain,36
2013-4-8,37,35,33,34,32,30,93,89,81,30.10,29.86,29.73,10,7,1,7,4,,0.14,8,Rain,42
2013-4-9,39,36,32,32,24,21,87,66,52,30.22,30.13,30.05,10,10,10,13,6,21,0.00,6,,22
2013-4-10,37,34,32,25,19,9,70,54,33,30.23,30.11,29.99,10,10,10,13,6,23,0.00,7,,56
2013-4-11,33,30,26,28,22,12,87,70,41,29.99,29.83,29.77,10,6,0,22,11,29,0.19,8,Snow,67
2013-4-12,35,30,26,28,24,21,93,79,60,29.85,29.76,29.70,10,5,1,10,5,16,0.03,8,Rain-Snow,33
2013-4-13,35,27,19,27,20,14,100,72,41,29.97,29.88,29.82,10,9,2,9,1,,0.01,6,Snow,344
2013-4-14,33,26,19,30,24,18,93,81,56,29.97,29.77,29.52,10,7,0,22,7,31,0.44,6,Snow,90
2013-4-15,35,34,32,32,28,27,100,81,75,29.92,29.64,29.49,10,10,2,21,12,28,0.00,8,,220
2013-4-16,39,34,28,28,25,21,87,70,52,30.34,30.16,29.93,10,10,10,13,6,17,0.00,7,,293
2013-4-17,37,32,28,30,26,23,93,75,65,30.36,30.22,29.99,10,8,1,10,4,17,0.10,6,Rain-Snow,60
2013-4-18,33,32,30,30,29,27,93,90,80,30.00,29.73,29.53,10,4,0,18,7,26,0.41,8,Snow,3
2013-4-19,35,30,26,30,21,9,93,67,38,29.98,29.69,29.50,10,7,1,23,14,33,0.03,6,Snow,338
2013-4-20,37,24,10,14,8,3,85,46,26,30.31,30.23,30.05,10,10,10,8,3,,0.00,0,,225
2013-4-21,39,32,26,34,27,10,93,78,47,30.31,30.17,30.02,10,8,0,12,5,21,0.13,8,Fog-Rain-Snow,147
2013-4-22,41,36,32,32,27,19,93,76,42,30.26,30.20,30.13,10,8,0,12,6,18,0.18,6,Rain-Snow,355
2013-4-23,37,32,26,30,20,12,93,62,36,30.18,30.11,30.05,10,9,2,14,8,21,0.00,2,Snow,325
2013-4-24,44,32,19,30,24,18,93,72,46,30.06,29.95,29.87,10,10,10,17,3,25,0.00,4,,248
2013-4-25,44,35,26,28,26,23,93,67,43,30.18,30.10,29.97,10,10,10,14,7,20,0.00,2,,253
2013-4-26,64,48,33,39,33,27,87,59,30,30.14,30.04,29.96,10,10,10,9,4,16,0.03,2,Rain,201
2013-4-27,69,50,32,37,31,28,93,51,21,30.14,30.04,29.87,10,10,5,12,3,16,0.00,0,,201
2013-4-28,73,62,50,45,42,37,76,54,33,29.87,29.77,29.70,10,10,10,18,8,29,0.00,2,Thunderstorm,207
2013-4-29,69,52,35,45,33,21,87,48,21,29.85,29.74,29.59,10,10,10,10,5,,0.00,0,,13
2013-4-30,68,56,44,55,38,19,93,53,19,29.97,29.63,29.39,10,10,7,22,9,32,0.01,2,Rain-Thunderstorm,267